FW5715 Weather Reports


time (UTC)temp
F
wind
direction
speed
knots
gust
knots
rain 1hr
in
rain 24hr
in
rain mn
in
humidity
%
barometer
mb
20260506014517 49 0.0 0.9 0.11 0.48 0.48 94 1008.9
20260506013536 49 0.0 1.7 0.13 0.47 0.47 94 1008.9
20260506012516 49 0.0 0.0 0.16 0.46 0.46 94 1008.8
20260506011517 49 135 0.9 1.7 0.16 0.45 0.45 93 1008.7
20260506010517 49 23 0.9 3.5 0.14 0.43 0.43 93 1008.9
20260506005517 49 0 5.2 8.7 0.12 0.40 0.40 93 1008.7
20260506004516 49 315 2.6 4.3 0.09 0.37 0.37 93 1008.9
20260506003516 49 45 1.7 4.3 0.11 0.34 0.35 93 1008.5
20260506002537 49 0 2.6 6.1 0.08 0.30 0.30 93 1008.2
20260506001516 49 23 2.6 4.3 0.10 0.29 0.29 93 1008.3
20260506000517 49 45 6.1 8.7 0.11 0.29 0.29 93 1008.0
20260505235517 50 338 5.2 7.8 0.12 0.28 0.28 93 1008.6
20260505234517 50 0 3.5 6.1 0.12 0.28 0.28 93 1008.3
20260505233516 50 0 2.6 4.3 0.07 0.23 0.23 93 1008.5
20260505232517 50 338 0.9 3.5 0.07 0.22 0.22 92 1008.4
20260505231517 50 338 2.6 3.5 0.04 0.19 0.19 92 1008.4
20260505230516 50 0 3.5 7.0 0.04 0.18 0.18 92 1008.4
20260505225516 50 315 5.2 7.8 0.06 0.16 0.16 92 1008.8
20260505224537 51 338 7.0 10.4 0.07 0.16 0.16 92 1008.1
20260505223516 52 0 10.4 13.0 0.08 0.16 0.16 91 1008.2
20260505222516 54 338 4.3 7.0 0.07 0.15 0.15 92 1008.3
20260505221516 55 0 2.6 3.5 0.07 0.15 0.15 92 1008.2
20260505220516 55 0 1.7 3.5 0.06 0.14 0.14 91 1008.2
20260505215517 55 338 2.6 4.3 0.02 0.10 0.10 91 1008.3
20260505214516 55 0 5.2 8.7 0.02 0.09 0.09 90 1007.8
20260505213517 56 338 2.6 4.3 0.02 0.08 0.08 90 1007.8
20260505212516 56 315 3.5 8.7 0.04 0.08 0.08 90 1007.7
20260505211516 57 315 4.3 7.0 0.05 0.08 0.08 90 1007.8
20260505210516 57 315 4.3 7.0 0.05 0.08 0.08 89 1008.0
20260505205516 58 315 3.5 7.0 0.05 0.08 0.08 88 1007.8
20260505204516 58 248 1.7 2.6 0.04 0.07 0.07 87 1007.8
20260505203536 59 270 0.9 2.6 0.03 0.06 0.06 85 1007.9
20260505202516 60 270 2.6 7.0 0.01 0.04 0.04 81 1007.7
20260505201556 61 270 4.3 9.6 0.00 0.03 0.03 77 1007.7
20260505200516 61 270 3.5 7.8 0.00 0.03 0.03 76 1007.6
20260505195516 61 270 5.2 8.7 0.00 0.03 0.03 76 1007.6
20260505194516 61 270 5.2 9.6 0.00 0.03 0.03 75 1007.8
20260505193516 62 270 4.3 8.7 0.00 0.03 0.03 75 1007.8
20260505192516 62 293 3.5 10.4 0.00 0.03 0.03 74 1007.9
20260505191516 63 270 2.6 8.7 0.00 0.03 0.03 72 1007.7
20260505190516 64 293 2.6 8.7 0.00 0.03 0.03 73 1007.9
20260505185516 64 270 2.6 8.7 0.00 0.03 0.03 73 1007.8
20260505184516 63 315 3.5 7.8 0.00 0.03 0.03 74 1007.5
20260505183536 62 315 3.5 7.8 0.00 0.03 0.03 73 1007.4
20260505182516 63 315 9.6 16.5 0.00 0.03 0.03 70 1007.5
20260505181516 66 270 0.9 7.0 0.00 0.03 0.03 63 1007.4
20260505180536 66 203 0.9 9.6 0.00 0.03 0.03 62 1007.2
20260505175536 67 225 2.6 10.4 0.00 0.03 0.03 61 1007.3
20260505174516 68 225 3.5 10.4 0.00 0.03 0.03 59 1007.0
20260505173516 68 180 0.9 7.0 0.00 0.03 0.03 62 1007.0
20260505172536 69 270 3.5 12.2 0.00 0.03 0.03 60 1007.1
20260505171516 68 203 1.7 7.8 0.00 0.03 0.03 63 1007.1
20260505170516 66 203 0.9 7.0 0.00 0.03 0.03 66 1007.2
20260505165516 66 180 1.7 9.6 0.00 0.03 0.03 64 1007.2
20260505164556 66 225 4.3 13.9 0.00 0.03 0.03 64 1007.2
20260505163516 68 225 5.2 10.4 0.00 0.03 0.03 61 1007.1
20260505162516 68 203 2.6 9.6 0.00 0.03 0.03 64 1006.8
20260505161516 67 203 7.0 18.2 0.00 0.03 0.03 66 1006.2
20260505160516 65 203 6.1 13.9 0.00 0.03 0.03 68 1006.7
20260505152516 64 180 2.6 9.6 0.00 0.03 0.03 74 1007.3
20260505151516 63 203 4.3 7.8 0.00 0.03 0.03 73 1007.1
20260505150516 63 225 5.2 8.7 0.00 0.03 0.03 73 1007.1
20260505140516 63 203 5.2 12.2 0.00 0.03 0.03 71 1006.5
20260505124516 64 203 7.0 16.5 0.00 0.03 0.03 68 1005.8
20260505123516 64 180 5.2 16.5 0.00 0.03 0.03 67 1005.7
20260505122516 64 203 7.8 18.2 0.00 0.03 0.03 68 1005.7
20260505121518 64 203 5.2 10.4 0.00 0.03 0.03 68 1005.9
20260505120518 63 203 6.1 13.0 0.00 0.03 0.03 69 1005.7
20260505115518 63 225 5.2 13.0 0.00 0.03 0.03 69 1005.9
20260505114518 63 203 6.1 12.2 0.00 0.03 0.03 69 1005.7
20260505113517 63 203 6.1 12.2 0.00 0.03 0.03 68 1005.4
20260505112517 63 203 5.2 13.9 0.00 0.03 0.03 68 1005.4
20260505111518 63 203 6.1 12.2 0.00 0.03 0.03 69 1005.5
20260505110517 63 203 7.8 17.4 0.00 0.03 0.03 69 1005.3
20260505101517 62 203 6.1 14.8 0.00 0.03 0.03 70 1004.9
20260505100518 62 203 7.8 15.6 0.00 0.03 0.03 70 1004.7
20260505095518 62 180 8.7 16.5 0.00 0.03 0.03 70 1004.7
20260505094518 62 203 7.8 15.6 0.00 0.03 0.03 71 1004.7
20260505093517 62 203 7.0 13.9 0.00 0.03 0.03 71 1004.7
20260505092517 62 203 7.0 13.0 0.00 0.03 0.03 71 1004.9
20260505091558 62 203 5.2 13.9 0.00 0.03 0.03 71 1004.8
20260505090517 62 203 7.0 13.9 0.00 0.03 0.03 71 1004.9
20260505085517 62 203 5.2 12.2 0.00 0.03 0.03 72 1004.7
20260505084517 62 203 6.1 16.5 0.00 0.03 0.03 72 1004.6
20260505083537 61 203 7.0 15.6 0.00 0.03 0.03 73 1004.6
20260505082517 61 203 5.2 12.2 0.00 0.03 0.03 74 1004.5
20260505081517 61 203 6.1 13.0 0.00 0.03 0.03 74 1004.4
20260505080537 61 203 6.1 13.0 0.00 0.03 0.03 75 1004.4
20260505075517 61 203 6.1 12.2 0.00 0.03 0.03 76 1004.4
20260505074537 61 180 7.0 11.3 0.00 0.03 0.03 76 1004.4
20260505073517 61 203 7.0 13.9 0.00 0.03 0.03 77 1004.4
20260505072639 60 203 7.0 11.3 0.00 0.03 0.03 78 1004.3
20260505071517 60 203 8.7 14.8 0.00 0.03 0.03 78 1004.3
20260505070517 60 180 7.8 12.2 0.01 0.03 0.03 80 1004.4
20260505065537 60 203 7.0 13.0 0.03 0.03 0.03 81 1004.5
20260505064537 59 203 6.1 11.3 0.03 0.03 0.03 82 1004.5
20260505063517 58 180 4.3 8.7 0.03 0.03 0.03 85 1004.7
20260505062517 58 203 3.5 6.1 0.03 0.03 0.03 86 1004.9
20260505061517 58 180 3.5 8.7 0.03 0.03 0.03 85 1004.9
20260505060517 60 203 7.8 20.9 0.02 0.02 0.02 79 1005.2
20260505055517 63 225 6.1 15.6 0.00 0.00 0.00 69 1005.7
20260505054537 63 203 7.0 12.2 0.00 0.00 0.00 68 1005.5
20260505053517 63 203 7.8 13.9 0.00 0.00 0.00 68 1005.4
20260505052517 63 203 7.8 15.6 0.00 0.00 0.00 68 1005.5
20260505051517 63 203 7.0 15.6 0.00 0.00 0.00 67 1005.4
20260505050517 63 180 9.6 15.6 0.00 0.00 0.00 67 1005.5
20260505041517 64 180 7.8 14.8 0.00 0.00 0.00 64 1005.7
20260505040517 64 203 7.8 13.9 0.00 0.00 0.00 64 1005.6
20260505035517 64 203 6.1 12.2 0.00 0.00 0.00 64 1005.7
20260505034517 64 180 5.2 9.6 0.00 0.00 0.00 64 1005.7
20260505033517 64 203 6.1 15.6 0.00 0.00 0.00 64 1005.7
20260505032537 64 203 7.0 15.6 0.00 0.00 0.00 64 1005.7
20260505031517 64 180 6.1 12.2 0.00 0.00 0.00 64 1005.8
20260505030537 63 203 4.3 11.3 0.00 0.00 0.00 65 1005.8
20260505025517 64 203 5.2 13.0 0.00 0.00 0.00 65 1005.8
20260505024517 63 203 6.1 13.0 0.00 0.00 0.00 67 1005.8
20260505023517 62 203 6.1 12.2 0.00 0.00 0.00 69 1005.8
20260505022537 62 203 7.0 11.3 0.00 0.00 0.00 71 1005.7
20260505021517 62 180 6.1 13.9 0.00 0.00 0.00 73 1005.8
20260505020517 61 180 5.2 8.7 0.00 0.00 0.00 74 1005.7
20260505015537 61 180 5.2 8.7 0.00 0.00 0.00 75 1005.5